Regional Weather Roundup
Issued by NWS

Home | Current Version | Previous Version | Text Only | Print | Product List | Glossary Off
Versions: 1 2 3 4 5 6 7 8 9 10 11 12 13 14 15 16 17 18 19 20 21 22 23 24 25 26 27 28 29 30 31 32 33 34 35 36 37 38 39 40 41 42 43 44 45 46 47 48 49 50

000
ASUS43 KMPX 292210
RWRMN
WEATHER ROUNDUP FOR MINNESOTA
NATIONAL WEATHER SERVICE TWIN CITIES/CHANHASSEN MN
500 PM CDT MON AUG 29 2016


NOTE: "FAIR" INDICATES FEW OR NO CLOUDS BELOW 12,000 FEET WITH NO
SIGNIFICANT WEATHER AND/OR OBSTRUCTIONS TO VISIBILITY. N/A MEANS
CURRENT SKY AND/OR WEATHER CONDITIONS ARE NOT AVAILABLE.

MNZ060>063-068>070-292300-
   Twin Cities Metro

CITY           SKY/WX    TMP DP  RH WIND       PRES   REMARKS
TWIN CITIES    PTSUNNY   85  70  60 SW10      30.13F
ST PAUL        MOSUNNY   84  71  65 SW8       30.13F
CRYSTAL        MOSUNNY   84  68  58 SW12      30.12S
BLAINE         PTSUNNY   88  70  55 SW9G16    30.14S HX  92
LAKEVILLE      MOSUNNY   82  72  69 S6        30.14F
EDEN PRAIRIE   MOSUNNY   86  72  62 SW13      30.12F HX  92
LAKEVILLE      MOSUNNY   82  72  69 S6        30.14F
SOUTH ST PAUL  MOSUNNY   85  69  59 S12G18    30.13F
LAKE ELMO      FAIR      82  72  69 SW9G18    30.15S
$$
MNZ001>005-007-008-013>017-022>024-027-028-292300-
   Northwest Minnesota

CITY           SKY/WX    TMP DP  RH WIND       PRES   REMARKS
BEMIDJI        MOSUNNY   75  65  72 W10       30.15R
HALLOCK        SUNNY     75  52  43 NW13      30.16S
ROSEAU         SUNNY     77  61  57 NW9       30.14S
WARROAD        SUNNY     77  63  61 W9G16     30.13R
THIEF RVR FALL SUNNY     76  59  55 NW13      30.17R
CROOKSTON      SUNNY     79  61  53 NW9       30.16R
FOSSTON        SUNNY     79  61  53 W8        30.17R
DETROIT LAKES  PTSUNNY   77  68  73 N10       30.18R
MOORHEAD       MOSUNNY   81  64  57 N14       30.16R
PARK RAPIDS    MOSUNNY   82  69  64 W8        30.14S
MAHNOMEN       FAIR      76  66  72 NW7       30.16S
$$
MNZ006-009>011-018-025>026-292300-
   North Central Minnesota

CITY           SKY/WX    TMP DP  RH WIND       PRES   REMARKS
BAUDETTE       PTSUNNY   79  62  56 W8        30.11S
FLAG ISLAND    SUNNY     73  59  60 NW3       30.11R
INTL FALLS     SUNNY     78  65  63 NW12G18   30.10S
WASKISH        SUNNY     77  68  73 SW10      30.12S
BIG FORK       PTSUNNY   79  66  65 W3        30.13S
LONGVILLE      PTSUNNY   81  70  69 CALM      30.14R
GRAND RAPIDS   CLOUDY    79  70  74 W8        30.15S
ORR            MOSUNNY   75  64  69 CALM      30.09S
COOK           PTSUNNY   77  68  73 W6        30.12F
WALKER         MOCLDY    78  70  76 NW7       30.14S
$$
MNZ012-019>021-037-292300-
   Northeast Minnesota

CITY           SKY/WX    TMP DP  RH WIND       PRES   REMARKS
DULUTH         MOSUNNY   80  67  64 W12       30.13F
ELY            PTSUNNY   75  66  73 W6        30.12F
HIBBING        CLOUDY    77  69  76 NW6       30.13S
EVELETH        CLOUDY    78  68  71 W5        30.14S
DULUTH HARBOR  SUNNY     82  70  65 SW13      30.10F
TWO HARBORS    SUNNY     79  72  78 SW3       30.11S
SILVER BAY     MOSUNNY   79  68  69 SW6       30.10S
GRAND MARAIS     N/A     69  63  81 W6        30.10S
G MARAIS ARPRT SUNNY     70  61  73 S6        30.16R
$$
MNZ029>031-032-039>041-046>048-054>057-064-292300-
   West Central Minnesota

CITY           SKY/WX    TMP DP  RH WIND       PRES   REMARKS
FERGUS FALLS   PTSUNNY   81  72  74 N7        30.14S
WHEATON        SUNNY     88  73  62 W5        30.13S HX  96
MORRIS         MOSUNNY   88  72  58 SW6       30.12S HX  94
ALEXANDRIA     MOSUNNY   83  70  64 SW6       30.15F
ELBOW LAKE     PTSUNNY   83  71  67 NW5       30.13F HAZE
WADENA         MOSUNNY   81  70  69 NW7       30.14S
GLENWOOD       SUNNY     84  72  65 W10       30.15S
APPLETON       MOSUNNY   86  72  62 SW3       30.11S HX  92
BENSON         MOSUNNY   86  70  58 SW7       30.12S HX  90
ORTONVILLE     MOSUNNY   88  72  58 CALM      30.11F HX  94
MADISON        MOSUNNY   86  73  66 SW6       30.11F HX  93
WILLMAR        FAIR      84  73  70 SW8       30.15S HX  91
$$
MNZ033>034-036-042>043-049>051-058-059-292300-
   Central Minnesota

CITY           SKY/WX    TMP DP  RH WIND       PRES   REMARKS
ST CLOUD       CLOUDY    84  74  71 S13       30.13S HX  91
SAUK CENTRE    MOCLDY    84  72  68 W8        30.14S
PAYNESVILLE    CLOUDY    84  71  63 S8        30.14S
AITKIN         MOSUNNY   84  64  51 SW5       30.13S
PINE RIVER     PTSUNNY   81  72  74 CALM      30.16S
BRAINERD       CLOUDY    82  68  62 NW7       30.14S
STAPLES        PTSUNNY   81  66  61 W7        30.14S
LONG PRAIRIE   CLOUDY    82  72  69 W6        30.14F
LITTLE FALLS   MOSUNNY   82  70  65 SW6       30.13S
LITCHFIELD     MOSUNNY   84  73  70 SW3       30.14S HX  91
BUFFALO        MOSUNNY   83  71  66 S6        30.15S
MAPLE LAKE     MOSUNNY   85  75  71 S3        30.14F HX  93
HUTCHINSON     MOSUNNY   84  75  74 S6        30.15S HX  91
$$
MNZ037-044-045-052-053-292300-
   East Central Minnesota

CITY           SKY/WX    TMP DP  RH WIND       PRES   REMARKS
PRINCETON      MOSUNNY   88  72  58 S10G17    30.13S HX  94
MORA           MOSUNNY   82  70  65 SW8       30.14S
CAMBRIDGE      CLOUDY    84  70  61 SW9       30.12S
RUSH CITY      RAIN      84  70  62 S7        30.13S
MOOSE LAKE     CLOUDY    81  70  69 NW5       30.12S
HINCKLEY       MOCLDY    82  73  74 SW9       30.12F
CLOQUET        SUNNY     82  63  51 W8G17     30.14S
MCGREGOR       SUNNY     82  66  57 SW5       30.14S
$$
MNZ071>073-080-081-089-090-097-098-292300-
   Southwest Minnesota

CITY           SKY/WX    TMP DP  RH WIND       PRES   REMARKS
MONTEVIDEO     CLOUDY    88  75  66 SW7       30.14S HX  97
GRANITE FALLS  MOSUNNY   86  75  69 S7        30.14S HX  95
CANBY          MOSUNNY   88  71  57 SW6       30.14R HX  93
MARSHALL       PTSUNNY   85  73  67 SW10      30.13S HX  91
REDWOOD FALLS  CLOUDY    85  71  63 S9        30.13S HX  90
OLIVIA         PTSUNNY   82  72  69 S9        30.13S
PIPESTONE        N/A     81  70  69 S8        30.16F
WINDOM         MOSUNNY   84  68  58 S9        30.16S
WORTHINGTON    MOSUNNY   83  70  64 S10       30.17S
JACKSON        PTSUNNY   82  68  61 S9        30.17F
TRACY          PTSUNNY   83  73  69 S8        30.15R
SLAYTON        MOSUNNY   81  70  69 S10       30.17S
$$
MNZ065>067-074>077-082>085-091>093-292300-
   South Central Minnesota

CITY           SKY/WX    TMP DP  RH WIND       PRES   REMARKS
NEW ULM        MOSUNNY   84  72  65 S9        30.13S
ST JAMES       MOSUNNY   82  72  69 S8        30.15S
FAIRMONT       PTSUNNY   81  68  64 S13       30.16F
GLENCOE        MOSUNNY   83  76  79 S7        30.13F HX  92
FARIBAULT      CLOUDY    82  72  69 S8        30.16S
OWATONNA       SUNNY     82  70  65 SW9       30.17S
WASECA         SUNNY     79  66  65 S9        30.18S
ALBERT LEA     MOSUNNY   81  68  65 S6        30.17F
$$
MNZ078>079-086>088-094>096-292300-
   Southeast Minnesota

CITY           SKY/WX    TMP DP  RH WIND       PRES   REMARKS
ROCHESTER      CLOUDY    83  73  72 S9        30.18F
RED WING       MOSUNNY   86  70  58 SW7       30.13S HX  90
STANTON        MOSUNNY   84  72  65 SW10      30.14S
DODGE CENTER   MOSUNNY   82  72  69 S7        30.18S
WINONA         CLOUDY    81  70  69 SW6       30.16S
AUSTIN         CLOUDY    81  72  74 SW7       30.18R
PRESTON        CLOUDY    78  71  79 S3        30.19S
$$
ABBREVIATIONS USED IN REMARKS
   TC - TEMPERATURES IN CELSIUS
  WCI - WIND CHILL INDEX
   HX - HEAT INDEX
  VSB - VISIBILITY
$$




USA.gov is the U.S. government's official web portal to all federal, state and local government web resources and services.